PCSAT (NO-44)

Last updated on Wed Sep 17 2025 00:03:09 GMT+0000 (Coordinated Universal Time)

1 26931U 01043C 25259.56072600 .00000173 00000+0 95716-4 0 9990 2 26931 67.0494 231.9117 0007064 275.2166 84.8130 14.31778755251272
UTC large
Height (km)
Speed (km/s)
/
Latitude / Longitude
Inclination (degrees)
Orbital Period (minutes)
Azimuth
Elevation
Range (km)
Doppler Factor

Next 0 passes for location: London (51.5072 / 0.1276)

Sorry there are no passes over London.